| time (UTC) | temp C | wind direction | speed KPH | gust KPH | rain 1hr cm | rain 24hr cm | rain mn cm | humidity % | barometer mb |
| 20260509090020 | 6 | 191 | 0.0 | 1.6 | 0.00 | 0.05 | 0.00 | 1 | 1010.3 |
| 20260509084521 | 6 | 100 | 0.0 | 3.2 | 0.00 | 0.05 | 0.00 | 1 | 1010.5 |
| 20260509083011 | 5 | 100 | 1.6 | 3.2 | 0.00 | 0.05 | 0.00 | 1 | 1010.6 |
| 20260509081508 | 5 | 96 | 0.0 | 3.2 | 0.00 | 0.05 | 0.00 | 1 | 1011.0 |
| 20260509080002 | 5 | 96 | 0.0 | 1.6 | 0.00 | 0.05 | 0.00 | 1 | 1010.9 |
| 20260509074558 | 5 | 94 | 1.6 | 3.2 | 0.00 | 0.05 | 0.00 | 1 | 1011.1 |
| 20260509073201 | 4 | 75 | 1.6 | 3.2 | 0.00 | 0.05 | 0.00 | 1 | 1011.1 |
| 20260509071550 | 4 | 75 | 0.0 | 0.0 | 0.00 | 0.05 | 0.00 | 1 | 1011.2 |
| 20260509070045 | 4 | 75 | 0.0 | 1.6 | 0.00 | 0.05 | 0.00 | 1 | 1011.3 |
| 20260509064546 | 4 | 75 | 0.0 | 3.2 | 0.00 | 0.05 | 0.00 | 1 | 1011.5 |
| 20260509063036 | 3 | 75 | 0.0 | 3.2 | 0.00 | 0.05 | 0.00 | 1 | 1011.8 |
| 20260509061531 | 4 | 142 | 0.0 | 1.6 | 0.00 | 0.05 | 0.00 | 1 | 1011.9 |
| 20260509060027 | 5 | 131 | 0.0 | 3.2 | 0.00 | 0.05 | 0.00 | 1 | 1012.1 |
| 20260509054530 | 5 | 96 | 0.0 | 3.2 | 0.00 | 0.05 | 0.00 | 1 | 1012.1 |
| 20260509053018 | 5 | 90 | 0.0 | 1.6 | 0.00 | 0.05 | 0.00 | 1 | 1012.4 |
| 20260509051513 | 5 | 90 | 0.0 | 3.2 | 0.00 | 0.05 | 0.00 | 1 | 1012.5 |
| 20260509050012 | 5 | 101 | 0.0 | 3.2 | 0.00 | 0.05 | 0.00 | 1 | 1012.6 |
| 20260509044506 | 5 | 98 | 0.0 | 3.2 | 0.00 | 0.05 | 0.00 | 1 | 1012.7 |
| 20260509043105 | 5 | 92 | 0.0 | 1.6 | 0.00 | 0.05 | 0.00 | 1 | 1012.8 |
| 20260509041556 | 5 | 92 | 0.0 | 4.8 | 0.00 | 0.05 | 0.00 | 1 | 1012.8 |
| 20260509034548 | 5 | 92 | 0.0 | 0.0 | 0.00 | 0.05 | 0.05 | 1 | 1012.8 |
| 20260509033043 | 5 | 92 | 0.0 | 0.0 | 0.00 | 0.05 | 0.05 | 1 | 1012.9 |
| 20260509031539 | 5 | 92 | 0.0 | 1.6 | 0.00 | 0.05 | 0.05 | 1 | 1012.8 |
| 20260509030039 | 5 | 92 | 0.0 | 1.6 | 0.00 | 0.05 | 0.05 | 3 | 1012.9 |
| 20260509024530 | 5 | 92 | 0.0 | 0.0 | 0.00 | 0.05 | 0.05 | 6 | 1012.9 |
| 20260509023027 | 5 | 92 | 1.6 | 4.8 | 0.00 | 0.05 | 0.05 | 6 | 1013.0 |
| 20260509021524 | 6 | 119 | 0.0 | 3.2 | 0.00 | 0.05 | 0.05 | 3 | 1013.1 |
| 20260509020017 | 6 | 119 | 0.0 | 1.6 | 0.00 | 0.05 | 0.05 | 1 | 1013.2 |
| 20260509014514 | 6 | 119 | 0.0 | 3.2 | 0.00 | 0.05 | 0.05 | 22 | 1013.1 |
| 20260509013025 | 6 | 90 | 1.6 | 3.2 | 0.00 | 0.05 | 0.05 | 25 | 1012.9 |
| 20260509011504 | 7 | 103 | 0.0 | 3.2 | 0.00 | 0.05 | 0.05 | 49 | 1012.6 |
| 20260509010057 | 8 | 115 | 0.0 | 1.6 | 0.00 | 0.05 | 0.05 | 59 | 1012.4 |
| 20260509004611 | 8 | 115 | 0.0 | 3.2 | 0.00 | 0.05 | 0.05 | 56 | 1012.2 |
| 20260509003052 | 8 | 88 | 3.2 | 4.8 | 0.00 | 0.05 | 0.05 | 53 | 1012.0 |
| 20260509001545 | 10 | 348 | 0.0 | 3.2 | 0.00 | 0.05 | 0.05 | 56 | 1012.0 |
| 20260509000042 | 11 | 348 | 0.0 | 1.6 | 0.00 | 0.05 | 0.05 | 50 | 1011.9 |
| 20260508234538 | 11 | 329 | 0.0 | 6.4 | 0.00 | 0.05 | 0.05 | 50 | 1011.7 |
| 20260508233033 | 12 | 324 | 1.6 | 4.8 | 0.00 | 0.05 | 0.05 | 49 | 1011.5 |
| 20260508231527 | 12 | 296 | 4.8 | 12.9 | 0.00 | 0.05 | 0.05 | 48 | 1011.5 |
| 20260508230037 | 12 | 325 | 6.4 | 12.9 | 0.00 | 0.05 | 0.05 | 47 | 1011.5 |
| 20260508224519 | 12 | 9 | 0.0 | 3.2 | 0.00 | 0.05 | 0.05 | 46 | 1011.6 |
| 20260508223020 | 12 | 298 | 1.6 | 8.0 | 0.00 | 0.05 | 0.05 | 44 | 1011.6 |
| 20260508221509 | 12 | 13 | 3.2 | 8.0 | 0.00 | 0.05 | 0.05 | 49 | 1011.5 |
| 20260508220012 | 12 | 302 | 4.8 | 16.1 | 0.00 | 0.05 | 0.05 | 43 | 1011.5 |
| 20260508214601 | 12 | 140 | 0.0 | 14.5 | 0.00 | 0.05 | 0.05 | 45 | 1011.7 |
| 20260508213056 | 12 | 42 | 3.2 | 16.1 | 0.00 | 0.05 | 0.05 | 46 | 1011.8 |
| 20260508211552 | 12 | 271 | 6.4 | 17.7 | 0.00 | 0.05 | 0.05 | 48 | 1011.9 |
| 20260508210104 | 12 | 271 | 12.9 | 24.1 | 0.00 | 0.05 | 0.05 | 46 | 1011.9 |
| 20260508204542 | 12 | 292 | 4.8 | 24.1 | 0.00 | 0.05 | 0.05 | 45 | 1012.0 |
| 20260508203038 | 12 | 322 | 11.3 | 20.9 | 0.00 | 0.05 | 0.05 | 49 | 1012.3 |
| 20260508201533 | 12 | 286 | 11.3 | 19.3 | 0.00 | 0.05 | 0.05 | 52 | 1012.5 |
| 20260508200038 | 12 | 301 | 11.3 | 17.7 | 0.00 | 0.05 | 0.05 | 52 | 1012.7 |
| 20260508194524 | 11 | 315 | 8.0 | 20.9 | 0.00 | 0.05 | 0.05 | 53 | 1012.7 |
| 20260508193020 | 12 | 355 | 8.0 | 20.9 | 0.00 | 0.05 | 0.05 | 54 | 1013.0 |
| 20260508191518 | 12 | 300 | 9.7 | 19.3 | 0.00 | 0.05 | 0.05 | 54 | 1013.1 |
| 20260508190012 | 11 | 289 | 8.0 | 19.3 | 0.00 | 0.05 | 0.05 | 53 | 1013.1 |
| 20260508184507 | 11 | 315 | 8.0 | 16.1 | 0.00 | 0.05 | 0.05 | 58 | 1013.2 |
| 20260508183005 | 11 | 279 | 14.5 | 29.0 | 0.00 | 0.05 | 0.05 | 59 | 1013.4 |
| 20260508181607 | 10 | 227 | 3.2 | 20.9 | 0.00 | 0.05 | 0.05 | 58 | 1013.4 |
| 20260508180053 | 10 | 250 | 12.9 | 20.9 | 0.00 | 0.05 | 0.05 | 59 | 1013.6 |
| 20260508174548 | 10 | 12 | 8.0 | 24.1 | 0.00 | 0.05 | 0.05 | 58 | 1013.7 |
| 20260508173048 | 10 | 266 | 12.9 | 22.5 | 0.00 | 0.05 | 0.05 | 59 | 1013.9 |
| 20260508171542 | 10 | 281 | 11.3 | 22.5 | 0.00 | 0.05 | 0.05 | 57 | 1014.1 |
| 20260508170040 | 8 | 271 | 4.8 | 16.1 | 0.00 | 0.05 | 0.05 | 52 | 1014.1 |
| 20260508164533 | 9 | 296 | 12.9 | 20.9 | 0.00 | 0.05 | 0.05 | 54 | 1014.3 |
| 20260508163028 | 8 | 257 | 14.5 | 20.9 | 0.00 | 0.05 | 0.05 | 41 | 1014.6 |
| 20260508161523 | 7 | 268 | 6.4 | 17.7 | 0.00 | 0.05 | 0.05 | 36 | 1014.7 |
| 20260508160021 | 8 | 221 | 11.3 | 20.9 | 0.00 | 0.05 | 0.05 | 14 | 1014.8 |
| 20260508154515 | 7 | 234 | 3.2 | 16.1 | 0.00 | 0.05 | 0.05 | 8 | 1014.7 |
| 20260508153010 | 7 | 267 | 8.0 | 17.7 | 0.00 | 0.05 | 0.05 | 11 | 1014.7 |
| 20260508151511 | 7 | 286 | 6.4 | 12.9 | 0.00 | 0.05 | 0.05 | 1 | 1014.6 |
| 20260508150105 | 6 | 239 | 6.4 | 14.5 | 0.00 | 0.05 | 0.05 | 1 | 1014.8 |
| 20260508144622 | 6 | 288 | 3.2 | 12.9 | 0.00 | 0.05 | 0.05 | 1 | 1014.8 |
| 20260508143106 | 6 | 267 | 4.8 | 11.3 | 0.00 | 0.05 | 0.05 | 1 | 1014.8 |
| 20260508141555 | 5 | 261 | 4.8 | 14.5 | 0.00 | 0.05 | 0.05 | 1 | 1014.6 |
| 20260508140049 | 5 | 295 | 4.8 | 12.9 | 0.03 | 0.05 | 0.05 | 1 | 1014.8 |
| 20260508134542 | 5 | 292 | 6.4 | 12.9 | 0.03 | 0.05 | 0.05 | 1 | 1014.7 |
| 20260508133104 | 5 | 283 | 4.8 | 14.5 | 0.05 | 0.05 | 0.05 | 1 | 1014.7 |
| 20260508131531 | 5 | 276 | 3.2 | 11.3 | 0.05 | 0.05 | 0.05 | 1 | 1014.8 |
| 20260508130027 | 5 | 284 | 8.0 | 11.3 | 0.03 | 0.03 | 0.03 | 1 | 1014.7 |
| 20260508124522 | 5 | 300 | 8.0 | 22.5 | 0.03 | 0.03 | 0.03 | 1 | 1014.8 |
| 20260508123019 | 5 | 299 | 6.4 | 12.9 | 0.00 | 0.00 | 0.00 | 1 | 1014.2 |
| 20260508121514 | 6 | 298 | 8.0 | 19.3 | 0.00 | 0.00 | 0.00 | 2 | 1014.0 |
| 20260508120010 | 6 | 273 | 3.2 | 9.7 | 0.00 | 0.00 | 0.00 | 1 | 1013.6 |
| 20260508114508 | 6 | 217 | 0.0 | 3.2 | 0.00 | 0.00 | 0.00 | 1 | 1013.4 |
| 20260508113001 | 6 | 277 | 1.6 | 6.4 | 0.00 | 0.00 | 0.00 | 1 | 1013.2 |
| 20260508111607 | 6 | 182 | 1.6 | 6.4 | 0.00 | 0.00 | 0.00 | 1 | 1013.2 |
| 20260508110058 | 5 | 201 | 0.0 | 1.6 | 0.00 | 0.00 | 0.00 | 1 | 1013.2 |
| 20260508104548 | 5 | 171 | 0.0 | 3.2 | 0.00 | 0.00 | 0.00 | 1 | 1012.7 |
| 20260508103055 | 5 | 171 | 0.0 | 3.2 | 0.00 | 0.00 | 0.00 | 1 | 1013.0 |
| 20260508101541 | 5 | 194 | 0.0 | 3.2 | 0.00 | 0.00 | 0.00 | 1 | 1013.3 |
| 20260508100035 | 5 | 194 | 0.0 | 1.6 | 0.00 | 0.00 | 0.00 | 1 | 1013.4 |
| 20260508094530 | 4 | 190 | 0.0 | 3.2 | 0.00 | 0.00 | 0.00 | 1 | 1013.6 |
| 20260508093029 | 3 | 180 | 0.0 | 1.6 | 0.00 | 0.00 | 0.00 | 1 | 1013.6 |
| 20260508091522 | 3 | 180 | 0.0 | 1.6 | 0.00 | 0.00 | 0.00 | 1 | 1013.5 |